Regional Weather Roundup
Issued by NWS

Home | Current Version | Previous Version | Text Only | Print | Product List | Glossary On
Versions: 1 2 3 4 5 6 7 8 9 10 11 12 13 14 15 16 17 18 19 20 21 22 23 24 25 26 27 28 29 30 31 32 33 34 35 36 37 38 39 40 41 42 43 44 45 46 47 48 49 50
000
ASUS46 KPQR 030810
RWROR

OREGON REGIONAL WEATHER ROUNDUP
NATIONAL WEATHER SERVICE PORTLAND OR
100 AM PDT FRI JUL 03 2015

NOTE: "FAIR" INDICATES FEW OR NO CLOUDS BELOW 12,000 FEET WITH
NO SIGNIFICANT WEATHER AND/OR OBSTRUCTIONS TO VISIBILITY.

ORZ001>013-030900-
NORTHWEST OREGON


CITY           SKY/WX    TMP DP  RH WIND       PRES   REMARKS
ASTORIA        CLOUDY    60  57  89 W7        30.00S
NEWPORT        CLEAR     54  54 100 N9        30.01S FOG
PORTLAND       CLEAR     75  55  49 N5        29.92R
VANCOUVER WA   CLEAR     75  52  44 CALM      29.91R
SCAPPOOSE      CLEAR     65  53  65 CALM      29.91R
HILLSBORO      CLEAR     71  49  45 NW5       29.92R
AURORA         CLEAR     73  51  46 CALM      29.93R
MCMINNVILLE    CLEAR     68  55  63 CALM      29.93R
SALEM          CLEAR     70  54  56 CALM      29.92S
CORVALLIS      CLEAR     70  54  56 W10       29.94S
EUGENE         CLEAR     70  57  63 NW3       29.93R
$$

ORZ021-028-030900-
SOUTHWEST OREGON


CITY           SKY/WX    TMP DP  RH WIND       PRES   REMARKS
NORTH BEND     PTCLDY    55  55 100 N9        29.98S
BROOKINGS      MOCLDY    55  55 100 CALM      29.93S FOG
ROSEBURG       PTCLDY    76  58  53 MISG      29.91R
SEXTON SUMMIT  PTCLDY    72  42  34 N14G23    30.07S
MEDFORD        CLEAR     81  52  36 CALM      29.91R
$$

ORZ014>016-041-030900-
COLUMBIA GORGE


CITY           SKY/WX    TMP DP  RH WIND       PRES   REMARKS
TROUTDALE      CLEAR     72  57  59 CALM      29.91R
THE DALLES     CLEAR     83  54  36 NW12      29.82R
$$

ORZ029>031-041-044-049-050-061>064-502-503-505>511-030900-
EASTERN OREGON


CITY           SKY/WX    TMP DP  RH WIND       PRES   REMARKS
REDMOND        PTCLDY    63  34  33 S5        30.02S
BEND             N/A    N/A N/A N/A MISG        N/A
PRINEVILLE     PTCLDY    68  36  30 CALM      30.02S
KLAMATH FALLS  CLEAR     69  56  62 CALM      30.08S
LAKEVIEW       PTCLDY    72  48  43 N9        30.09F
HERMISTON      CLEAR     80  51  36 S9        29.81R
PENDLETON      CLEAR     75  39  27 S5        29.87R
JOHN DAY       CLEAR     72  43  35 SE6       30.03F
MEACHAM        CLEAR     53  45  74 CALM      30.05S
LA GRANDE      CLEAR     66  36  32 CALM      29.97S
BAKER CITY     CLEAR     60  43  53 S6        30.01S
BURNS          PTCLDY    65  42  43 W7        30.06S
ROME             N/A     80  35  19 N5        30.01R
ONTARIO        CLEAR     82  33  17 NE5       29.88S
$$



USA.gov is the U.S. government's official web portal to all federal, state and local government web resources and services.